Weather History for KCKB - May, 2013

Change the Weather History Date:

Monday, May 6, 2013

  Actual Average Record
Temperature  
Mean Temperature 59 °F -  
Max Temperature 66 °F 70 °F 92 °F (1959)
Min Temperature 52 °F 43 °F 30 °F (1968)
Degree Days  
Heating Degree Days 6    
Growing Degree Days 9 (Base 50)    
Moisture  
Dew Point 46 °F    
Average Humidity 67    
Maximum Humidity 89    
Minimum Humidity 51    
Precipitation  
Precipitation 0.09 in - - ()
Sea Level Pressure  
Sea Level Pressure 29.99 in    
Wind  
Wind Speed 7 mph (ENE)    
Max Wind Speed 13 mph    
Max Gust Speed 21 mph    
Visibility 10 miles    
Events Rain    
Averages and records for this station are not official NWS values.
T = Trace of Precipitation, MM = Missing Value Source: NWS Daily Summary

Daily Weather History Graph

Daily Weather History Graph

Search for Another Location

Airport or City:

Trip Planner

Search our weather history database for the weather conditions in past years. The results will help you decide how hot, cold, wet, or windy it might be!

Date:

Astronomy

May. 06, 2013 Rise Set
Actual Time 6:16 AM EDT 8:19 PM EDT
Civil Twilight 5:46 AM EDT 8:48 PM EDT
Nautical Twilight 5:10 AM EDT 9:24 PM EDT
Astronomical Twilight 4:32 AM EDT 10:04 PM EDT
Moon 4:16 AM EDT (5/6) 5:18 PM EDT (5/6)
Length of Visible Light 15h 02m
Length of Day
14h 03m
Waning Crescent, 11% of the Moon is Illuminated
May 6
Waning Crescent
May 9
New
May 18
First Quarter
May 25
Full
May 31
Last Quarter

Hourly Weather History & Observations

Time (EDT) Temp. Dew Point Humidity Pressure Visibility Wind Dir Wind Speed Gust Speed Precip Events Conditions
12:53 AM 52.0 °F 37.0 °F 57% 30.03 in 10.0 mi NE 4.6 mph - N/A   Clear
1:53 AM 53.1 °F 37.0 °F 55% 30.01 in 10.0 mi ENE 4.6 mph - N/A   Clear
2:53 AM 53.1 °F 37.9 °F 57% 30.00 in 10.0 mi ENE 3.5 mph - N/A   Clear
3:53 AM 54.0 °F 39.9 °F 59% 29.99 in 10.0 mi East 8.1 mph - N/A   Clear
4:53 AM 54.0 °F 39.9 °F 59% 29.99 in 10.0 mi ENE 5.8 mph - N/A   Clear
5:53 AM 53.1 °F 41.0 °F 64% 29.99 in 10.0 mi ENE 9.2 mph - N/A   Clear
6:53 AM 52.0 °F 41.0 °F 66% 30.00 in 10.0 mi ENE 8.1 mph - N/A   Clear
7:53 AM 53.1 °F 42.1 °F 66% 30.01 in 10.0 mi ENE 6.9 mph - N/A   Mostly Cloudy
8:53 AM 55.9 °F 44.1 °F 64% 30.00 in 10.0 mi NE 8.1 mph - N/A   Clear
9:53 AM 60.1 °F 46.9 °F 62% 30.00 in 10.0 mi East 10.4 mph - N/A   Clear
10:53 AM 63.0 °F 46.9 °F 56% 30.01 in 10.0 mi East 11.5 mph - N/A   Partly Cloudy
11:53 AM 63.0 °F 48.0 °F 58% 30.00 in 10.0 mi ENE 11.5 mph 18.4 mph N/A   Mostly Cloudy
12:53 PM 64.0 °F 46.9 °F 54% 29.99 in 10.0 mi East 12.7 mph 16.1 mph N/A   Mostly Cloudy
1:53 PM 66.0 °F 48.0 °F 52% 29.99 in 10.0 mi ESE 6.9 mph 20.7 mph N/A   Mostly Cloudy
2:53 PM 66.9 °F 48.0 °F 51% 29.97 in 10.0 mi East 10.4 mph - N/A   Mostly Cloudy
3:53 PM 64.0 °F 48.9 °F 58% 29.96 in 10.0 mi East 12.7 mph 20.7 mph 0.00 in Rain Light Rain
4:53 PM 60.1 °F 52.0 °F 75% 29.96 in 4.0 mi East 11.5 mph 18.4 mph 0.02 in Rain Light Rain
5:53 PM 61.0 °F 51.1 °F 70% 29.96 in 10.0 mi East 8.1 mph - 0.02 in Rain Light Rain
6:53 PM 57.9 °F 52.0 °F 81% 29.97 in 10.0 mi ENE 5.8 mph - 0.01 in Rain Light Rain
7:53 PM 57.0 °F 52.0 °F 83% 29.99 in 10.0 mi NE 9.2 mph - 0.01 in Rain Light Rain
8:53 PM 55.9 °F 52.0 °F 87% 29.99 in 10.0 mi NE 9.2 mph - 0.00 in   Overcast
9:53 PM 55.9 °F 52.0 °F 87% 29.99 in 10.0 mi NNE 9.2 mph - N/A   Overcast
10:53 PM 55.0 °F 52.0 °F 89% 29.97 in 10.0 mi NNE 9.2 mph - 0.03 in Rain Light Rain
11:53 PM 55.9 °F 52.0 °F 87% 29.95 in 10.0 mi NE 6.9 mph - 0.00 in   Mostly Cloudy